When you browse on this site, cookies collect data to enhance your experience and personalize the content and advertising you see.
Visit our Privacy Policy to learn more. By continuing to use the site, you agree to this use of cookies and data.
  • In Romania
  • List of Countries
  • For 7 days
  • Water Temperature
  • Satellite Maps
  • Weather Map
  • Weather Widgets
  • user-avatar
    Login

    Hourly Weather Wien

    Today, 17 January, Thursday

    Time Temperature Precipitation Wind Pressure Humidity
    00:00 +3°C° 0 mm 1 mps 738 mmHg 73%
    01:00 +3°C° 0 mm 1 mps 738 mmHg 72%
    02:00 +2°C° 0 mm 1 mps 738 mmHg 72%
    03:00 +2°C° 0 mm 1 mps 738 mmHg 72%
    04:00 +2°C° 0 mm 1 mps 738 mmHg 72%
    05:00 +2°C° 0 mm 1 mps 738 mmHg 71%
    06:00 +2°C° 0 mm 1 mps 738 mmHg 70%
    07:00 +2°C° 0 mm 1 mps 738 mmHg 69%
    08:00 +3°C° 0 mm 2 mps 738 mmHg 66%
    09:00 +4°C° 0 mm 2 mps 738 mmHg 63%
    10:00 +4°C° 0 mm 3 mps 738 mmHg 60%
    11:00 +5°C° 0 mm 3 mps 738 mmHg 60%
    12:00 +8°C° 0 mm 3 mps 738 mmHg 59%
    13:00 +9°C° 0 mm 3 mps 737 mmHg 59%
    14:00 +8°C° 0 mm 3 mps 737 mmHg 60%
    15:00 +7°C° 0 mm 3 mps 737 mmHg 62%
    16:00 +5°C° 0 mm 3 mps 737 mmHg 63%
    17:00 +6°C° 0 mm 2 mps 737 mmHg 64%
    18:00 +5°C° 0 mm 2 mps 737 mmHg 64%
    19:00 +4°C° 0 mm 2 mps 737 mmHg 65%
    20:00 +4°C° 0.1 mm 3 mps 737 mmHg 67%
    21:00 +4°C° 0.1 mm 4 mps 737 mmHg 70%
    22:00 +4°C° 0.1 mm 6 mps 737 mmHg 72%
    23:00 +3°C° 0.1 mm 6 mps 737 mmHg 71%

    Tomorrow, 18 January, Friday

    Time Temperature Precipitation Wind Pressure Humidity
    00:00 +3°C° 0.1 mm 6 mps 737 mmHg 69%
    01:00 +3°C° 0.1 mm 6 mps 738 mmHg 68%
    02:00 +3°C° 0 mm 6 mps 738 mmHg 68%
    03:00 +2°C° 0 mm 6 mps 738 mmHg 67%
    04:00 +2°C° 0 mm 5 mps 738 mmHg 67%
    05:00 +2°C° 0 mm 5 mps 739 mmHg 68%
    06:00 +1°C° 0 mm 4 mps 740 mmHg 69%
    07:00 +1°C° 0 mm 4 mps 740 mmHg 70%
    08:00 +1°C° 0 mm 5 mps 741 mmHg 67%
    09:00 0°C° 0 mm 5 mps 742 mmHg 64%
    10:00 -1°C° 0 mm 6 mps 742 mmHg 61%
    11:00 -1°C° 0 mm 6 mps 743 mmHg 58%
    12:00 +1°C° 0 mm 6 mps 743 mmHg 55%
    13:00 +1°C° 0 mm 6 mps 743 mmHg 53%
    14:00 +1°C° 0 mm 5 mps 744 mmHg 54%
    15:00 0°C° 0 mm 5 mps 744 mmHg 56%
    16:00 0°C° 0 mm 4 mps 744 mmHg 57%
    17:00 -1°C° 0 mm 4 mps 745 mmHg 60%
    18:00 -1°C° 0 mm 4 mps 746 mmHg 62%
    19:00 -1°C° 0 mm 3 mps 746 mmHg 65%
    20:00 -1°C° 0 mm 3 mps 747 mmHg 66%
    21:00 -2°C° 0 mm 2 mps 747 mmHg 68%
    22:00 -2°C° 0 mm 2 mps 747 mmHg 70%
    23:00 0°C° 0 mm 1 mps 747 mmHg 70%

    Day after tomorrow, 19 January, Saturday

    Time Temperature Precipitation Wind Pressure Humidity
    00:00 -1°C° 0 mm 1 mps 747 mmHg 70%
    01:00 -1°C° 0 mm 1 mps 747 mmHg 71%
    02:00 -1°C° 0 mm 1 mps 747 mmHg 70%
    03:00 -2°C° 0 mm 0 mps 747 mmHg 70%
    04:00 -2°C° 0 mm 0 mps 747 mmHg 70%
    05:00 -2°C° 0 mm 0 mps 747 mmHg 70%
    06:00 -2°C° 0 mm 0 mps 747 mmHg 70%
    07:00 -2°C° 0 mm 0 mps 747 mmHg 70%
    08:00 -1°C° 0 mm 1 mps 747 mmHg 67%
    09:00 -2°C° 0 mm 2 mps 747 mmHg 65%
    10:00 -2°C° 0 mm 2 mps 747 mmHg 62%
    11:00 -1°C° 0 mm 2 mps 746 mmHg 59%
    12:00 -1°C° 0 mm 3 mps 746 mmHg 57%
    13:00 0°C° 0 mm 3 mps 745 mmHg 54%
    14:00 -1°C° 0 mm 3 mps 745 mmHg 57%
    15:00 -1°C° 0 mm 3 mps 745 mmHg 59%
    16:00 -1°C° 0 mm 3 mps 744 mmHg 62%
    17:00 -2°C° 0 mm 3 mps 744 mmHg 64%
    18:00 -2°C° 0 mm 3 mps 744 mmHg 66%
    19:00 -2°C° 0 mm 3 mps 744 mmHg 69%
    20:00 -2°C° 0 mm 3 mps 744 mmHg 69%
    21:00 -2°C° 0 mm 3 mps 744 mmHg 70%
    22:00 -2°C° 0 mm 3 mps 744 mmHg 70%
    23:00 -2°C° 0 mm 3 mps 744 mmHg 73%

    20 January, Sunday

    Time Temperature Precipitation Wind Pressure Humidity
    00:00 -2°C° 0 mm 3 mps 744 mmHg 77%
    01:00 -2°C° 0 mm 3 mps 744 mmHg 80%
    02:00 -2°C° 0 mm 3 mps 743 mmHg 82%
    03:00 -4°C° 0 mm 3 mps 743 mmHg 84%
    04:00 -4°C° 0 mm 3 mps 743 mmHg 87%
    05:00 -3°C° 0 mm 2 mps 743 mmHg 87%
    06:00 -3°C° 0 mm 2 mps 743 mmHg 87%
    07:00 -1°C° 0 mm 1 mps 743 mmHg 87%
    08:00 0°C° 0 mm 1 mps 743 mmHg 85%
    09:00 0°C° 0 mm 1 mps 743 mmHg 83%
    10:00 0°C° 0 mm 1 mps 743 mmHg 80%
    11:00 +1°C° 0 mm 1 mps 743 mmHg 76%
    12:00 +1°C° 0 mm 1 mps 743 mmHg 72%
    13:00 +2°C° 0 mm 1 mps 743 mmHg 68%
    14:00 +1°C° 0 mm 1 mps 743 mmHg 69%
    15:00 +1°C° 0 mm 1 mps 743 mmHg 70%
    16:00 +1°C° 0 mm 1 mps 743 mmHg 71%
    17:00 0°C° 0 mm 1 mps 743 mmHg 73%
    18:00 0°C° 0 mm 1 mps 744 mmHg 75%
    19:00 -1°C° 0 mm 1 mps 744 mmHg 77%
    20:00 -1°C° 0 mm 1 mps 745 mmHg 77%
    21:00 -1°C° 0 mm 1 mps 745 mmHg 77%
    22:00 -1°C° 0 mm 1 mps 746 mmHg 77%
    23:00 -1°C° 0 mm 1 mps 746 mmHg 77%

    21 January, Monday

    Time Temperature Precipitation Wind Pressure Humidity
    00:00 -1°C° 0 mm 1 mps 746 mmHg 76%
    01:00 -3°C° 0 mm 2 mps 746 mmHg 76%
    02:00 -3°C° 0 mm 2 mps 746 mmHg 75%
    03:00 -3°C° 0 mm 2 mps 746 mmHg 75%
    04:00 -4°C° 0 mm 2 mps 746 mmHg 75%
    05:00 -4°C° 0 mm 2 mps 746 mmHg 74%
    06:00 -4°C° 0 mm 2 mps 747 mmHg 74%
    07:00 -4°C° 0 mm 2 mps 747 mmHg 74%
    08:00 -3°C° 0 mm 2 mps 747 mmHg 69%
    09:00 -2°C° 0 mm 2 mps 747 mmHg 65%
    10:00 -2°C° 0 mm 2 mps 747 mmHg 60%
    11:00 +1°C° 0 mm 1 mps 747 mmHg 56%
    12:00 +1°C° 0 mm 1 mps 747 mmHg 52%
    13:00 +2°C° 0 mm 1 mps 746 mmHg 48%
    14:00 +2°C° 0 mm 1 mps 746 mmHg 50%
    15:00 +1°C° 0 mm 1 mps 746 mmHg 52%
    16:00 0°C° 0 mm 1 mps 746 mmHg 54%
    17:00 0°C° 0 mm 1 mps 746 mmHg 56%
    18:00 -1°C° 0 mm 1 mps 746 mmHg 58%
    19:00 -1°C° 0 mm 1 mps 746 mmHg 60%
    20:00 -2°C° 0 mm 1 mps 746 mmHg 61%
    21:00 -2°C° 0 mm 1 mps 746 mmHg 62%
    22:00 -2°C° 0 mm 1 mps 746 mmHg 63%
    23:00 -2°C° 0 mm 1 mps 746 mmHg 64%

    22 January, Tuesday

    Time Temperature Precipitation Wind Pressure Humidity
    00:00 -2°C° 0 mm 1 mps 746 mmHg 65%
    01:00 -2°C° 0 mm 1 mps 745 mmHg 66%
    02:00 -2°C° 0 mm 1 mps 745 mmHg 68%
    03:00 -2°C° 0 mm 1 mps 745 mmHg 69%
    04:00 -2°C° 0 mm 1 mps 744 mmHg 70%
    05:00 -3°C° 0 mm 1 mps 744 mmHg 73%
    06:00 -5°C° 0 mm 2 mps 743 mmHg 75%
    07:00 -5°C° 0 mm 2 mps 743 mmHg 78%
    08:00 -4°C° 0 mm 2 mps 743 mmHg 76%
    09:00 -4°C° 0 mm 2 mps 742 mmHg 75%
    10:00 -3°C° 0 mm 2 mps 742 mmHg 73%
    11:00 -3°C° 0 mm 2 mps 741 mmHg 70%
    12:00 -2°C° 0 mm 3 mps 740 mmHg 67%
    13:00 -2°C° 0 mm 3 mps 739 mmHg 64%
    14:00 -2°C° 0 mm 3 mps 738 mmHg 64%
    15:00 -2°C° 0 mm 2 mps 738 mmHg 64%
    16:00 -3°C° 0 mm 2 mps 737 mmHg 64%
    17:00 -3°C° 0 mm 2 mps 737 mmHg 67%
    18:00 -3°C° 0 mm 2 mps 736 mmHg 69%
    19:00 -3°C° 0 mm 2 mps 736 mmHg 72%
    20:00 -2°C° 0.1 mm 1 mps 736 mmHg 75%
    21:00 -2°C° 0.1 mm 1 mps 735 mmHg 77%
    22:00 -2°C° 0.1 mm 1 mps 735 mmHg 80%
    23:00 -2°C° 0 mm 1 mps 735 mmHg 80%
    Show more